Weather History for Whiteman AFB, MO

Change the Weather History Date:

Monday, March 19, 2012

  Actual Average Record
Temperature  
Mean Temperature 66 °F -  
Max Temperature 77 °F 53 °F 77 °F (2012)
Min Temperature 56 °F 33 °F 29 °F (2013)
Growing Degree Days 16 (Base 50)    
Moisture  
Dew Point 60 °F    
Average Humidity 82    
Maximum Humidity 100    
Minimum Humidity 57    
Precipitation  
Precipitation 0.88 in - - ()
Sea Level Pressure  
Sea Level Pressure 29.77 in    
Wind  
Wind Speed 13 mph (South)    
Max Wind Speed 34 mph    
Max Gust Speed 46 mph    
Visibility 8 miles    
Events Rain , Thunderstorm    
Averages and records for this station are not official NWS values.
T = Trace of Precipitation, MM = Missing Value Source: NWS Daily Summary

Daily Weather History Graph

Daily Weather History Graph

Search for Another Location

Airport:

Trip Planner

Search our weather history database for the weather conditions in past years. The results will help you decide how hot, cold, wet, or windy it might be!

Date:

Astronomy

Mar. 19, 2012 Rise Set
Actual Time 7:18 AM CDT 7:25 PM CDT
Civil Twilight 6:51 AM CDT 7:52 PM CDT
Nautical Twilight 6:20 AM CDT 8:23 PM CDT
Astronomical Twilight 5:49 AM CDT 8:54 PM CDT
Moon 5:29 AM CDT (3/19) 4:55 PM CDT (3/19)
Length of Visible Light 13h 00m
Length of Day
12h 07m
Waning Crescent, 8% of the Moon is Illuminated
Mar 19
Waning Crescent
Mar 22
New
Mar 30
First Quarter
Apr 6
Full
Apr 13
Last Quarter

Hourly Weather History & Observations

Time (CDT) Temp. Dew Point Humidity Pressure Visibility Wind Dir Wind Speed Gust Speed Precip Events Conditions
12:55 AM 69.6 °F 55.9 °F 62% 29.84 in 10.0 mi SSE 9.2 mph - N/A   Scattered Clouds
1:55 AM 69.3 °F 56.3 °F 63% 29.83 in 10.0 mi SSE 12.7 mph - N/A   Clear
2:55 AM 68.7 °F 57.0 °F 66% 29.83 in 10.0 mi South 12.7 mph - N/A   Clear
3:55 AM 68.4 °F 58.8 °F 71% 29.81 in 10.0 mi SSE 13.8 mph - N/A   Clear
4:55 AM 67.8 °F 59.9 °F 76% 29.81 in 10.0 mi South 13.8 mph - N/A   Partly Cloudy
5:55 AM 68.2 °F 60.8 °F 77% 29.82 in 10.0 mi SSE 12.7 mph 20.7 mph N/A   Mostly Cloudy
6:55 AM 68.7 °F 61.2 °F 77% 29.83 in 10.0 mi SSE 13.8 mph 20.7 mph N/A   Partly Cloudy
7:11 AM 68.0 °F 60.8 °F 78% 29.84 in 10.0 mi South 15.0 mph 20.7 mph N/A   Light Drizzle
7:20 AM 68.0 °F 62.6 °F 83% 29.84 in 10.0 mi South 16.1 mph - N/A   Clear
7:55 AM 67.8 °F 61.9 °F 81% 29.84 in 10.0 mi South 12.7 mph - 0.00 in   Scattered Clouds
8:55 AM 68.4 °F 62.1 °F 80% 29.83 in 10.0 mi SSE 12.7 mph - N/A   Partly Cloudy
9:55 AM 68.2 °F 62.6 °F 82% 29.83 in 10.0 mi South 17.3 mph 21.9 mph N/A   Overcast
10:55 AM 72.5 °F 63.0 °F 72% 29.80 in 10.0 mi SSE 15.0 mph 24.2 mph N/A   Scattered Clouds
11:55 AM 75.2 °F 62.1 °F 64% 29.77 in 10.0 mi SSE 19.6 mph 28.8 mph N/A Thunderstorm Mostly Cloudy
12:55 PM 75.9 °F 61.9 °F 62% 29.74 in 10.0 mi South 23.0 mph 34.5 mph N/A   Mostly Cloudy
1:55 PM 75.0 °F 61.7 °F 63% 29.71 in 10.0 mi SSE 16.1 mph 25.3 mph 0.00 in Rain Light Rain Showers
2:55 PM 74.3 °F 60.6 °F 62% 29.69 in 10.0 mi South 34.5 mph 46.0 mph 0.00 in   Mostly Cloudy
3:36 PM 71.6 °F 59.0 °F 64% 29.68 in 10.0 mi South 25.3 mph 33.4 mph N/A Rain Light Rain
3:55 PM 69.8 °F 59.0 °F 68% 29.68 in 10.0 mi South 19.6 mph 26.5 mph 0.00 in Rain Light Rain
4:48 PM 73.4 °F 57.2 °F 57% 29.67 in 10.0 mi South 13.8 mph 31.1 mph N/A Rain Light Rain
4:55 PM 72.7 °F 58.3 °F 60% 29.67 in 10.0 mi South 16.1 mph 31.1 mph 0.00 in   Mostly Cloudy
5:01 PM 71.6 °F 59.0 °F 64% 29.68 in 10.0 mi South 17.3 mph 29.9 mph N/A   Overcast
5:08 PM 69.8 °F 62.6 °F 78% 29.69 in 6.0 mi WNW 18.4 mph 31.1 mph N/A Rain , Thunderstorm Light Rain
5:11 PM 68.0 °F 62.6 °F 83% 29.70 in 6.0 mi West 18.4 mph 31.1 mph N/A Rain Light Rain
5:23 PM 62.6 °F 60.8 °F 94% 29.73 in 3.0 mi WNW 20.7 mph 25.3 mph N/A Rain , Thunderstorm Thunderstorms and Rain
5:27 PM 60.8 °F 60.8 °F 100% 29.71 in 1.8 mi WNW 19.6 mph 25.3 mph N/A Rain , Thunderstorm Heavy Thunderstorms and Rain
5:47 PM 59.0 °F 59.0 °F 100% 29.73 in 2.5 mi WNW 15.0 mph 24.2 mph N/A Rain , Thunderstorm Light Rain
5:55 PM 58.8 °F 58.8 °F 100% 29.74 in 2.0 mi WNW 15.0 mph 24.2 mph 0.28 in Rain , Thunderstorm Light Rain
6:07 PM 59.0 °F 59.0 °F 100% 29.75 in 3.0 mi NW 9.2 mph - N/A Rain Light Rain
6:11 PM 59.0 °F 59.0 °F 100% 29.75 in 5.0 mi WNW 8.1 mph - N/A Rain Light Rain
6:55 PM 58.3 °F 58.3 °F 100% 29.78 in 10.0 mi WNW 6.9 mph - 0.16 in Rain Light Rain
7:55 PM 58.1 °F 57.9 °F 99% 29.79 in 10.0 mi Calm Calm - 0.07 in   Light Drizzle
8:14 PM 57.2 °F 57.2 °F 100% 29.80 in 7.0 mi Calm Calm - N/A Rain Light Rain
8:27 PM 57.2 °F 57.2 °F 100% 29.81 in 10.0 mi Calm Calm - N/A Rain Light Rain
8:55 PM 57.7 °F 57.7 °F 100% 29.81 in 7.0 mi Calm Calm - 0.05 in Rain Light Rain
9:55 PM 57.0 °F 56.8 °F 99% 29.82 in 6.0 mi East 4.6 mph - 0.14 in Rain Light Rain
10:55 PM 56.8 °F 56.8 °F 100% 29.81 in 10.0 mi East 4.6 mph - 0.03 in   Mostly Cloudy
11:36 PM 57.2 °F 57.2 °F 100% 29.82 in 4.0 mi SE 6.9 mph - N/A Rain Light Rain
11:55 PM 57.2 °F 57.2 °F 100% 29.84 in 3.0 mi SSE 8.1 mph - 0.15 in Rain Light Rain